timestamp,wind_dir_avg,wind_spd_avg,wind_spd_max_dir,wind_spd_gust,battery_voltage,lat,long
2023-05-07 00:04:00+00:00,3.0,6.91,5.0,7.54,12.49,47.59359,-54.27349
2023-05-07 00:14:00+00:00,2.0,5.79,2.0,7.02,12.33,47.59359,-54.27349
2023-05-07 00:24:00+00:00,2.0,6.24,3.0,7.26,12.33,47.59359,-54.27349
2023-05-07 00:34:00+00:00,15.0,4.57,5.0,5.15,12.33,47.59359,-54.27349
2023-05-07 00:44:00+00:00,4.0,4.36,1.0,5.08,12.33,47.59359,-54.27349
2023-05-07 00:54:00+00:00,3.0,5.47,0.0,6.31,12.33,47.59359,-54.27349
2023-05-07 01:04:00+00:00,6.0,5.68,4.0,7.09,12.33,47.59359,-54.27349
2023-05-07 01:14:00+00:00,3.0,4.86,2.0,5.41,12.33,47.59359,-54.27349
2023-05-07 01:24:00+00:00,1.0,4.57,2.0,5.22,12.33,47.59359,-54.27349
2023-05-07 01:34:00+00:00,2.0,4.54,2.0,5.16,12.33,47.59359,-54.27349
2023-05-07 01:44:00+00:00,13.0,4.54,7.0,5.22,12.33,47.59359,-54.27349
2023-05-07 01:54:00+00:00,9.0,3.79,6.0,4.23,12.33,47.59359,-54.27349
2023-05-07 02:04:00+00:00,1.0,3.52,357.0,3.9,12.33,47.59359,-54.27349
2023-05-07 02:14:00+00:00,351.0,2.79,351.0,2.91,12.25,47.59359,-54.27349
2023-05-07 02:24:00+00:00,356.0,3.95,355.0,4.62,12.25,47.59359,-54.27349
2023-05-07 02:34:00+00:00,359.0,4.45,359.0,4.73,12.25,47.59359,-54.27349
2023-05-07 02:44:00+00:00,355.0,3.61,355.0,3.91,12.25,47.59359,-54.27349
2023-05-07 02:54:00+00:00,347.0,2.98,346.0,3.37,12.25,47.59359,-54.27349
2023-05-07 03:04:00+00:00,356.0,3.42,357.0,3.73,12.25,47.59359,-54.27349
2023-05-07 03:14:01+00:00,350.0,4.62,344.0,5.18,12.25,47.59359,-54.27349
2023-05-07 03:24:01+00:00,349.0,4.34,346.0,4.58,12.25,47.59359,-54.27349
2023-05-07 03:34:01+00:00,347.0,4.46,346.0,5.1,12.25,47.59359,-54.27349
2023-05-07 03:44:01+00:00,13.0,6.31,16.0,7.53,12.25,47.59359,-54.27349
2023-05-07 03:54:01+00:00,354.0,4.41,356.0,4.96,12.25,47.59359,-54.27349
2023-05-07 04:04:01+00:00,338.0,4.34,339.0,4.9,12.25,47.59359,-54.27349
2023-05-07 04:14:00+00:00,332.0,3.93,332.0,4.28,12.25,47.59359,-54.27349
2023-05-07 04:24:00+00:00,341.0,3.4,342.0,3.95,12.25,47.59359,-54.27349
2023-05-07 04:34:00+00:00,346.0,2.55,350.0,2.77,12.25,47.59359,-54.27349
2023-05-07 04:44:00+00:00,356.0,3.04,4.0,3.5,12.25,47.59359,-54.27349
2023-05-07 04:54:00+00:00,348.0,3.48,347.0,3.77,12.25,47.59359,-54.27349
2023-05-07 05:04:00+00:00,354.0,3.99,352.0,4.37,12.25,47.59359,-54.27349
2023-05-07 05:14:00+00:00,346.0,2.83,346.0,3.2,12.25,47.59359,-54.27349
2023-05-07 05:24:00+00:00,347.0,2.19,347.0,2.3,12.25,47.59359,-54.27349
2023-05-07 05:34:00+00:00,344.0,2.19,342.0,2.3,12.25,47.59359,-54.27349
2023-05-07 05:44:00+00:00,347.0,4.24,346.0,4.76,12.25,47.59359,-54.27349
2023-05-07 05:54:00+00:00,343.0,4.83,345.0,5.03,12.25,47.59359,-54.27349
2023-05-07 06:04:00+00:00,345.0,4.74,345.0,5.0,12.25,47.59359,-54.27349
2023-05-07 06:14:01+00:00,344.0,4.59,346.0,4.94,12.17,47.59359,-54.27349
2023-05-07 06:24:01+00:00,344.0,4.61,342.0,4.9,12.17,47.59359,-54.27349
2023-05-07 06:34:01+00:00,346.0,4.39,346.0,4.74,12.17,47.59359,-54.27349
2023-05-07 06:44:01+00:00,345.0,4.63,351.0,5.26,12.17,47.59359,-54.27349
2023-05-07 06:54:01+00:00,348.0,3.68,349.0,4.28,12.17,47.59359,-54.27349
2023-05-07 07:04:01+00:00,345.0,2.75,343.0,3.23,12.17,47.59359,-54.27349
2023-05-07 07:14:01+00:00,359.0,3.96,357.0,4.44,12.17,47.59359,-54.27349
2023-05-07 07:24:01+00:00,356.0,3.68,356.0,3.99,12.17,47.59359,-54.27349
2023-05-07 07:34:01+00:00,344.0,3.89,342.0,4.2,12.17,47.59359,-54.27349
2023-05-07 07:44:01+00:00,340.0,4.25,340.0,4.69,12.17,47.59359,-54.27349
2023-05-07 07:54:01+00:00,334.0,4.59,334.0,4.97,12.17,47.59359,-54.27349
2023-05-07 08:04:01+00:00,345.0,3.86,344.0,4.19,12.17,47.59359,-54.27349
2023-05-07 08:14:01+00:00,341.0,3.9,338.0,4.52,12.09,47.59359,-54.27349
2023-05-07 08:24:01+00:00,331.0,2.88,335.0,3.29,12.09,47.59359,-54.27349
2023-05-07 08:34:01+00:00,336.0,2.55,342.0,2.92,12.09,47.59359,-54.27349
2023-05-07 08:44:01+00:00,340.0,2.04,343.0,2.37,12.09,47.59359,-54.27349
2023-05-07 08:54:01+00:00,326.0,1.67,327.0,1.9,12.09,47.59359,-54.27349
2023-05-07 09:04:01+00:00,338.0,2.17,335.0,2.58,12.09,47.59359,-54.27349
2023-05-07 09:14:01+00:00,332.0,2.43,327.0,2.84,12.33,47.59359,-54.27349
2023-05-07 09:24:01+00:00,336.0,1.37,341.0,1.6,12.33,47.59359,-54.27349
2023-05-07 09:34:01+00:00,317.0,1.52,315.0,1.78,12.33,47.59359,-54.27349
2023-05-07 09:44:01+00:00,315.0,2.39,315.0,2.65,12.33,47.59359,-54.27349
2023-05-07 09:54:01+00:00,321.0,2.65,318.0,2.92,12.33,47.59359,-54.27349
2023-05-07 10:04:01+00:00,309.0,2.42,309.0,2.73,12.33,47.59359,-54.27349
2023-05-07 11:14:01+00:00,303.0,2.17,307.0,2.37,13.76,47.59359,-54.27349
2023-05-07 11:24:01+00:00,297.0,1.39,297.0,1.5,13.76,47.59359,-54.27349
2023-05-07 11:34:01+00:00,215.0,2.07,214.0,2.49,13.76,47.59359,-54.27349
2023-05-07 11:44:01+00:00,202.0,2.27,211.0,2.68,13.76,47.59359,-54.27349
2023-05-07 11:54:01+00:00,182.0,3.53,186.0,3.83,13.76,47.59359,-54.27349
2023-05-07 12:04:01+00:00,187.0,3.36,195.0,3.65,13.76,47.59359,-54.27349
2023-05-07 12:14:01+00:00,186.0,4.13,186.0,4.52,13.92,47.59359,-54.27349
2023-05-07 12:24:01+00:00,187.0,4.0,196.0,4.31,13.92,47.59359,-54.27349
2023-05-07 12:34:01+00:00,196.0,3.79,197.0,3.93,13.92,47.59359,-54.27349
2023-05-07 12:44:01+00:00,161.0,3.63,151.0,4.09,13.92,47.59359,-54.27349
2023-05-07 12:54:01+00:00,176.0,4.55,156.0,4.95,13.92,47.59359,-54.27349
2023-05-07 13:04:01+00:00,190.0,4.95,192.0,5.2,13.92,47.59359,-54.27349
2023-05-07 13:14:01+00:00,158.0,5.35,157.0,5.72,14.4,47.59359,-54.27349
2023-05-07 13:24:01+00:00,186.0,5.8,207.0,6.83,14.4,47.59359,-54.27349
2023-05-07 13:34:01+00:00,204.0,6.59,199.0,7.5,14.4,47.59359,-54.27349
2023-05-07 13:44:01+00:00,210.0,7.51,210.0,8.24,14.4,47.59359,-54.27349
2023-05-07 13:54:01+00:00,198.0,6.9,206.0,7.79,14.4,47.59359,-54.27349
2023-05-07 14:04:01+00:00,211.0,7.78,213.0,8.47,14.4,47.59359,-54.27349
2023-05-07 14:14:01+00:00,212.0,9.16,208.0,10.17,14.24,47.59359,-54.27349
2023-05-07 14:24:01+00:00,211.0,9.44,208.0,10.54,14.24,47.59359,-54.27349
2023-05-07 14:34:01+00:00,211.0,8.34,212.0,9.36,14.24,47.59359,-54.27349
2023-05-07 14:44:01+00:00,210.0,7.69,210.0,8.54,14.24,47.59359,-54.27349
2023-05-07 14:54:01+00:00,205.0,8.17,208.0,9.26,14.24,47.59359,-54.27349
2023-05-07 15:04:01+00:00,202.0,8.21,204.0,9.6,14.24,47.59359,-54.27349
2023-05-07 15:14:00+00:00,206.0,8.5,201.0,9.27,14.32,47.59359,-54.27349
2023-05-07 15:24:00+00:00,207.0,8.43,206.0,9.77,14.32,47.59359,-54.27349
2023-05-07 15:34:00+00:00,211.0,10.36,217.0,11.63,14.32,47.59359,-54.27349
2023-05-07 15:44:00+00:00,213.0,12.07,213.0,13.43,14.32,47.59359,-54.27349
2023-05-07 15:54:00+00:00,212.0,11.84,215.0,13.06,14.32,47.59359,-54.27349
2023-05-07 16:04:00+00:00,214.0,12.7,214.0,14.61,14.32,47.59359,-54.27349
2023-05-07 16:14:00+00:00,212.0,12.02,208.0,14.2,13.84,47.59359,-54.27349
2023-05-07 16:24:00+00:00,214.0,13.31,213.0,15.58,13.84,47.59359,-54.27349
2023-05-07 16:34:00+00:00,211.0,11.54,208.0,13.08,13.84,47.59359,-54.27349
2023-05-07 16:44:00+00:00,210.0,11.3,212.0,12.62,13.84,47.59359,-54.27349
2023-05-07 16:54:00+00:00,209.0,11.83,209.0,13.18,13.84,47.59359,-54.27349
2023-05-07 17:04:00+00:00,207.0,11.55,208.0,13.43,13.84,47.59359,-54.27349
2023-05-07 17:14:00+00:00,207.0,10.18,202.0,12.37,13.92,47.59359,-54.27349
2023-05-07 17:24:00+00:00,210.0,11.35,209.0,13.32,13.92,47.59359,-54.27349
2023-05-07 17:34:00+00:00,211.0,11.75,212.0,13.02,13.92,47.59359,-54.27349
2023-05-07 17:44:00+00:00,211.0,10.67,211.0,12.38,13.92,47.59359,-54.27349
2023-05-07 17:54:00+00:00,211.0,9.45,214.0,10.68,13.92,47.59359,-54.27349
2023-05-07 18:04:00+00:00,202.0,8.99,206.0,9.8,13.92,47.59359,-54.27349
2023-05-07 18:14:00+00:00,198.0,9.23,199.0,12.43,13.68,47.59359,-54.27349
2023-05-07 18:24:00+00:00,194.0,8.79,199.0,9.73,13.68,47.59359,-54.27349
2023-05-07 18:34:00+00:00,194.0,8.45,198.0,9.2,13.68,47.59359,-54.27349
2023-05-07 18:44:00+00:00,188.0,8.24,191.0,9.09,13.68,47.59359,-54.27349
2023-05-07 18:54:00+00:00,179.0,6.78,178.0,7.28,13.68,47.59359,-54.27349
2023-05-07 19:04:00+00:00,216.0,8.49,219.0,9.6,13.68,47.59359,-54.27349
2023-05-07 19:14:00+00:00,224.0,6.62,229.0,7.98,13.68,47.59359,-54.27349
2023-05-07 19:24:00+00:00,236.0,7.04,239.0,8.38,13.68,47.59359,-54.27349
2023-05-07 19:34:00+00:00,247.0,9.2,253.0,13.85,13.68,47.59359,-54.27349
2023-05-07 19:44:00+00:00,246.0,8.35,244.0,9.01,13.68,47.59359,-54.27349
2023-05-07 19:54:00+00:00,240.0,6.78,247.0,7.82,13.68,47.59359,-54.27349
2023-05-07 20:04:00+00:00,238.0,6.19,241.0,7.29,13.68,47.59359,-54.27349
2023-05-07 20:14:00+00:00,244.0,7.53,244.0,8.25,13.76,47.59359,-54.27349
2023-05-07 20:24:00+00:00,246.0,10.43,251.0,14.89,13.76,47.59359,-54.27349
2023-05-07 20:34:00+00:00,247.0,12.99,252.0,16.43,13.76,47.59359,-54.27349
2023-05-07 20:44:00+00:00,243.0,9.59,251.0,14.22,13.76,47.59359,-54.27349
2023-05-07 20:54:00+00:00,241.0,8.83,241.0,9.88,13.76,47.59359,-54.27349
2023-05-07 21:04:00+00:00,239.0,7.72,238.0,8.23,13.76,47.59359,-54.27349
2023-05-07 21:14:00+00:00,234.0,6.27,241.0,7.38,13.6,47.59359,-54.27349
2023-05-07 21:24:00+00:00,190.0,6.69,188.0,7.42,13.6,47.59359,-54.27349
2023-05-07 21:34:00+00:00,195.0,4.96,191.0,6.25,13.6,47.59359,-54.27349
2023-05-07 21:44:00+00:00,223.0,7.32,226.0,8.32,13.6,47.59359,-54.27349
2023-05-07 21:54:00+00:00,215.0,7.68,213.0,8.65,13.6,47.59359,-54.27349
2023-05-07 22:04:00+00:00,219.0,8.08,226.0,8.94,13.6,47.59359,-54.27349
2023-05-07 22:14:01+00:00,217.0,7.8,218.0,8.95,13.29,47.59359,-54.27349
2023-05-07 22:24:01+00:00,214.0,8.94,214.0,9.83,13.29,47.59359,-54.27349
2023-05-07 22:34:01+00:00,214.0,8.6,215.0,9.63,13.29,47.59359,-54.27349
2023-05-07 22:44:01+00:00,211.0,8.93,214.0,9.9,13.29,47.59359,-54.27349
2023-05-07 22:54:01+00:00,215.0,8.62,218.0,9.91,13.29,47.59359,-54.27349
2023-05-07 23:04:01+00:00,211.0,9.14,213.0,9.88,13.29,47.59359,-54.27349
2023-05-07 23:14:00+00:00,218.0,8.74,214.0,9.96,12.73,47.59359,-54.27349
2023-05-07 23:24:00+00:00,220.0,8.63,220.0,9.51,12.73,47.59359,-54.27349
2023-05-07 23:34:00+00:00,222.0,8.32,225.0,9.52,12.73,47.59359,-54.27349
2023-05-07 23:44:00+00:00,225.0,8.16,222.0,9.29,12.73,47.59359,-54.27349
2023-05-07 23:54:00+00:00,220.0,7.75,220.0,8.85,12.73,47.59359,-54.27349
